Weather Roundup
Issued by NWS Springfield, MO

Home | Current Version | Previous Version | Text Only | Print | Product List | Glossary On
Versions: 1 2 3 4 5 6 7 8 9 10 11 12 13 14 15 16 17 18 19 20 21 22 23 24 25 26 27 28 29 30 31 32 33 34 35 36 37 38 39 40 41 42 43 44 45 46 47 48 49 50
000
NZUS99 KSGF 021607
HRRSGF

HOURLY WEATHER
NATIONAL WEATHER SERVICE SPRINGFIELD MO
1100 AM CDT SUN AUG 02 2015

......SGF CWA......

CITY           SKY/WX    TMP DP  RH WIND       PRES   REMARKS
SPRINGFIELD    SUNNY     88  66  48 W7        30.00S HX  90
JOPLIN         SUNNY     90  65  43 SW13      29.99S HX  92
WEST PLAINS    SUNNY     86  67  52 W6        30.03S
ROLLA          SUNNY     85  70  60 S8        29.98S
OSAGE BEACH    SUNNY     86  66  51 SW9       29.98F
BRANSON        MOSUNNY   86  64  48 CALM      30.03S

......SURROUNDING SGF CWA......

CITY           SKY/WX    TMP DP  RH WIND       PRES   REMARKS
CHANUTE        SUNNY     87  67  51 SW10      29.97F HX  90
PARSONS        SUNNY     87  69  54 SW10      29.98F HX  91
COFFEYVILLE    SUNNY     88  68  51 S10       29.97S HX  91
EMPORIA        SUNNY     87  64  46 SW16G23   29.95F
GROVE OK       SUNNY     90  64  43 SW7       30.00S HX  91
ROGERS AR      MOSUNNY   88  66  48 SW8       30.03S HX  90
SILOAM SPRINGS PTSUNNY   84  66  54 SW8       30.01S
HARRISON AR    MOSUNNY   87  67  51 CALM      30.03S HX  90
NEAR YELLVILLE SUNNY     82  70  65 SE3       29.99S

......KANSAS AND MISSOURI......

CITY           SKY/WX    TMP DP  RH WIND       PRES   REMARKS
KANSAS CTY INT MOSUNNY   84  71  65 SW13      29.92S
DOWNTOWN KC    SUNNY     87  67  51 SW10      29.90F HX  90
COLUMBIA       SUNNY     84  70  62 SW12      29.96S
SEDALIA        MOSUNNY   85  69  58 SW10      29.95F
ST JOSEPH      SUNNY     85  75  72 W12       29.90R HX  93
ST LOUIS       MOSUNNY   91  69  48 W10       29.95S HX  96
SPIRIT OF STL  MOSUNNY   86  71  60 W8        29.94S HX  91
KIRKSVILLE     MOSUNNY   83  71  67 SW8       29.90F
WICHITA        MOSUNNY   83  68  60 S14       29.95F
TOPEKA         SUNNY     86  68  54 SW15      29.91F
OLATHE         SUNNY     84  68  58 SW12      29.93F

......TENNESSEE......

CITY           SKY/WX    TMP DP  RH WIND       PRES   REMARKS
MEMPHIS        MOSUNNY   91  68  46 W5        29.98F HX  95
NASHVILLE      MOSUNNY   83  48  29 VRB5      30.02S

......ARKANSAS.......

CITY           SKY/WX    TMP DP  RH WIND       PRES   REMARKS
FAYETTEVILLE   MOSUNNY   85  67  54 S6        30.02F
FT SMITH       SUNNY     87  68  52 CALM      29.99S HX  90
LITTLE ROCK    MOSUNNY   90  67  46 VRB5      29.99F HX  93

......OKLAHOMA.......

CITY           SKY/WX    TMP DP  RH WIND       PRES   REMARKS
TULSA          CLOUDY    87  64  46 S16       29.97S
PONCA CITY     PTSUNNY   85  66  53 SW7       29.96F
MCALESTER      PTSUNNY   88  65  46 S8        30.01S HX  90
OKLAHOMA CITY  LGT RAIN  76  68  76 SE9       29.99S

......IOWA............

CITY           SKY/WX    TMP DP  RH WIND       PRES   REMARKS
DES MOINES     MOSUNNY   88  71  57 W21       29.81S HX  94
QUAD CITIES    MOSUNNY   83  66  56 SW12G23   29.83F

......ILLINOIS........

CITY           SKY/WX    TMP DP  RH WIND       PRES   REMARKS
QUINCY         PTSUNNY   84  70  62 SW9       29.90F
CHICAGO        MOSUNNY   85  64  49 W16G24    29.81F



USA.gov is the U.S. government's official web portal to all federal, state and local government web resources and services.